Time,TemperatureF,DewpointF,PressureIn,WindDirection,WindDirectionDegrees,WindSpeedMPH,WindSpeedGustMPH,Humidity,HourlyPrecipIn,Conditions,Clouds,dailyrainin,SoftwareType,DateUTC
2013-02-05 00:00:00,41.9,39.5,30.03,West,265,0.0,0.0,91,0.00,CLR,,0.00,WeatherDisplay:10.37,2013-02-05 08:00:00,
2013-02-05 00:15:00,41.5,39.3,30.03,West,265,0.0,0.0,92,0.00,CLR,,0.00,WeatherDisplay:10.37,2013-02-05 08:15:00,
2013-02-05 00:30:00,41.3,39.2,30.03,West,265,0.0,0.0,92,0.00,CLR,,0.00,WeatherDisplay:10.37,2013-02-05 08:30:00,
2013-02-05 00:45:00,41.1,39.0,30.02,West,265,0.0,0.0,92,0.00,CLR,,0.00,WeatherDisplay:10.37,2013-02-05 08:45:00,
2013-02-05 01:00:00,41.0,38.9,30.02,West,265,0.0,0.0,92,0.00,CLR,,0.00,WeatherDisplay:10.37,2013-02-05 09:00:00,
2013-02-05 01:15:00,40.9,38.7,30.01,West,265,0.0,0.0,92,0.00,CLR,,0.00,WeatherDisplay:10.37,2013-02-05 09:15:00,
2013-02-05 01:30:00,40.8,38.7,30.01,West,265,0.0,0.0,92,0.00,CLR,,0.00,WeatherDisplay:10.37,2013-02-05 09:30:00,
2013-02-05 01:45:00,40.6,38.5,30.01,West,265,0.0,0.0,92,0.00,CLR,,0.00,WeatherDisplay:10.37,2013-02-05 09:45:00,
2013-02-05 02:00:00,40.2,38.1,30.01,West,265,0.0,0.0,92,0.00,CLR,,0.00,WeatherDisplay:10.37,2013-02-05 10:00:00,
2013-02-05 02:15:00,39.9,37.8,30.01,West,265,0.0,0.0,92,0.00,CLR,,0.00,WeatherDisplay:10.37,2013-02-05 10:15:00,
2013-02-05 02:30:00,39.6,37.5,30.01,West,265,0.0,0.0,92,0.00,CLR,,0.00,WeatherDisplay:10.37,2013-02-05 10:30:00,
2013-02-05 02:45:00,39.3,37.1,30.01,West,265,0.0,0.0,92,0.00,CLR,,0.00,WeatherDisplay:10.37,2013-02-05 10:45:00,
2013-02-05 03:00:00,39.2,37.1,30.01,West,265,0.0,0.0,92,0.00,CLR,,0.00,WeatherDisplay:10.37,2013-02-05 11:00:00,
2013-02-05 03:15:00,39.2,37.3,30.01,West,265,0.0,0.0,93,0.00,CLR,,0.00,WeatherDisplay:10.37,2013-02-05 11:15:00,
2013-02-05 03:30:00,39.5,37.6,30.01,West,265,0.0,0.0,93,0.00,CLR,,0.00,WeatherDisplay:10.37,2013-02-05 11:30:00,
2013-02-05 03:45:00,39.6,37.7,30.01,West,265,0.0,0.0,93,0.00,CLR,,0.00,WeatherDisplay:10.37,2013-02-05 11:45:00,
2013-02-05 04:00:00,39.3,37.4,30.00,West,265,0.0,0.0,93,0.00,CLR,,0.00,WeatherDisplay:10.37,2013-02-05 12:00:00,
2013-02-05 04:15:00,39.5,37.6,30.01,West,265,0.0,0.0,93,0.00,CLR,,0.00,WeatherDisplay:10.37,2013-02-05 12:15:00,
2013-02-05 04:30:00,39.2,37.3,30.01,West,265,0.0,1.0,93,0.00,CLR,,0.00,WeatherDisplay:10.37,2013-02-05 12:30:00,
2013-02-05 04:45:00,39.1,37.2,30.01,West,265,0.0,0.0,93,0.00,CLR,,0.00,WeatherDisplay:10.37,2013-02-05 12:45:00,
2013-02-05 05:00:00,38.9,37.0,30.00,West,265,0.0,0.0,93,0.00,CLR,,0.00,WeatherDisplay:10.37,2013-02-05 13:00:00,
2013-02-05 05:15:00,38.8,36.9,30.00,West,265,0.0,0.0,93,0.00,CLR,,0.00,WeatherDisplay:10.37,2013-02-05 13:15:00,
2013-02-05 05:30:00,38.9,37.0,30.00,West,265,0.0,0.0,93,0.00,CLR,,0.00,WeatherDisplay:10.37,2013-02-05 13:30:00,
2013-02-05 05:45:00,39.1,37.2,30.00,West,265,0.0,0.0,93,0.00,CLR,,0.00,WeatherDisplay:10.37,2013-02-05 13:45:00,
2013-02-05 06:00:00,39.2,37.3,30.00,West,265,0.0,0.0,93,0.00,CLR,,0.00,WeatherDisplay:10.37,2013-02-05 14:00:00,
2013-02-05 06:15:00,39.3,37.4,30.00,West,265,0.0,0.0,93,0.00,CLR,,0.00,WeatherDisplay:10.37,2013-02-05 14:15:00,
2013-02-05 06:30:00,39.5,37.6,30.00,West,265,0.0,0.0,93,0.00,CLR,,0.00,WeatherDisplay:10.37,2013-02-05 14:30:00,
2013-02-05 06:45:00,39.6,37.7,30.01,West,265,0.0,0.0,93,0.00,CLR,,0.00,WeatherDisplay:10.37,2013-02-05 14:45:00,
2013-02-05 07:00:00,39.8,38.2,30.02,West,265,0.0,0.0,94,0.00,CLR,,0.00,WeatherDisplay:10.37,2013-02-05 15:00:00,
2013-02-05 07:15:00,40.1,38.5,30.02,West,265,0.0,0.0,94,0.00,CLR,,0.00,WeatherDisplay:10.37,2013-02-05 15:15:00,
2013-02-05 07:30:00,40.8,39.2,30.02,West,265,0.0,0.0,94,0.00,CLR,,0.00,WeatherDisplay:10.37,2013-02-05 15:30:00,
2013-02-05 07:45:00,41.3,39.7,30.03,West,265,0.0,0.0,94,0.00,CLR,,0.00,WeatherDisplay:10.37,2013-02-05 15:45:00,
2013-02-05 08:00:00,42.2,40.6,30.04,West,265,0.0,0.0,94,0.00,CLR,,0.00,WeatherDisplay:10.37,2013-02-05 16:00:00,
2013-02-05 08:15:00,43.1,41.5,30.04,West,265,0.0,1.0,94,0.00,CLR,,0.00,WeatherDisplay:10.37,2013-02-05 16:15:00,
2013-02-05 08:30:00,43.6,41.4,30.04,West,265,0.0,0.0,92,0.00,CLR,,0.00,WeatherDisplay:10.37,2013-02-05 16:30:00,
2013-02-05 08:45:00,44.2,41.5,30.04,West,262,0.0,2.0,90,0.00,CLR,,0.00,WeatherDisplay:10.37,2013-02-05 16:45:00,
2013-02-05 09:00:00,44.6,41.3,30.05,South,176,0.0,3.0,88,0.00,CLR,,0.00,WeatherDisplay:10.37,2013-02-05 17:00:00,
2013-02-05 09:15:00,44.9,41.0,30.05,ESE,110,0.0,1.0,86,0.00,CLR,,0.00,WeatherDisplay:10.37,2013-02-05 17:15:00,
2013-02-05 09:30:00,45.2,40.7,30.05,East,83,0.0,2.0,84,0.00,CLR,,0.00,WeatherDisplay:10.37,2013-02-05 17:30:00,
2013-02-05 09:45:00,45.7,40.9,30.05,East,85,0.0,1.0,83,0.00,CLR,,0.00,WeatherDisplay:10.37,2013-02-05 17:45:00,
2013-02-05 10:00:00,46.1,41.2,30.05,East,85,0.0,1.0,83,0.00,CLR,,0.00,WeatherDisplay:10.37,2013-02-05 18:00:00,
2013-02-05 10:15:00,47.0,41.5,30.05,East,85,0.0,1.0,81,0.00,CLR,,0.00,WeatherDisplay:10.37,2013-02-05 18:15:00,
2013-02-05 10:30:00,47.6,41.4,30.06,East,86,0.0,0.0,79,0.00,CLR,,0.00,WeatherDisplay:10.37,2013-02-05 18:30:00,
2013-02-05 10:45:00,48.2,42.0,30.06,East,86,0.0,0.0,79,0.00,CLR,,0.00,WeatherDisplay:10.37,2013-02-05 18:45:00,
2013-02-05 11:00:00,48.9,42.3,30.05,East,86,0.0,0.0,78,0.00,CLR,,0.00,WeatherDisplay:10.37,2013-02-05 19:00:00,
2013-02-05 11:15:00,49.5,42.9,30.06,East,86,0.0,1.0,78,0.00,CLR,,0.00,WeatherDisplay:10.37,2013-02-05 19:15:00,
2013-02-05 11:30:00,50.0,42.7,30.05,East,86,0.0,0.0,76,0.00,CLR,,0.00,WeatherDisplay:10.37,2013-02-05 19:30:00,
2013-02-05 11:45:00,50.5,42.9,30.05,East,86,0.0,0.0,75,0.00,CLR,,0.00,WeatherDisplay:10.37,2013-02-05 19:45:00,
2013-02-05 12:00:00,51.2,42.9,30.04,East,86,0.0,1.0,73,0.00,CLR,,0.00,WeatherDisplay:10.37,2013-02-05 20:00:00,
2013-02-05 12:15:00,51.8,42.7,30.03,East,86,0.0,1.0,71,0.00,CLR,,0.00,WeatherDisplay:10.37,2013-02-05 20:15:00,
2013-02-05 12:30:00,52.3,43.5,30.03,SSE,165,0.0,4.0,72,0.00,CLR,,0.00,WeatherDisplay:10.37,2013-02-05 20:30:00,
2013-02-05 12:45:00,52.6,43.8,30.03,SE,136,0.0,3.0,72,0.00,CLR,,0.00,WeatherDisplay:10.37,2013-02-05 20:45:00,
2013-02-05 13:00:00,52.9,43.8,30.02,SSE,157,0.0,2.0,71,0.00,CLR,,0.00,WeatherDisplay:10.37,2013-02-05 21:00:00,
2013-02-05 13:15:00,53.2,44.4,30.02,SSE,155,0.0,0.0,72,0.00,CLR,,0.00,WeatherDisplay:10.37,2013-02-05 21:15:00,
2013-02-05 13:30:00,53.6,44.0,30.01,South,182,0.0,3.0,70,0.00,CLR,,0.00,WeatherDisplay:10.37,2013-02-05 21:30:00,
2013-02-05 13:45:00,53.3,43.8,30.02,SSE,160,0.0,7.0,70,0.00,CLR,,0.00,WeatherDisplay:10.37,2013-02-05 21:45:00,
2013-02-05 14:00:00,53.2,44.4,30.02,SSE,160,0.0,1.0,72,0.00,CLR,,0.00,WeatherDisplay:10.37,2013-02-05 22:00:00,
2013-02-05 14:15:00,55.3,44.5,30.01,South,181,0.0,2.0,67,0.00,CLR,,0.00,WeatherDisplay:10.37,2013-02-05 22:15:00,
2013-02-05 14:30:00,55.1,43.9,30.01,SE,135,0.0,1.0,66,0.00,CLR,,0.00,WeatherDisplay:10.37,2013-02-05 22:30:00,
2013-02-05 14:45:00,54.8,43.7,30.01,SE,141,0.0,2.0,66,0.00,CLR,,0.00,WeatherDisplay:10.37,2013-02-05 22:45:00,
2013-02-05 15:00:00,55.3,44.5,30.02,SE,145,1.0,6.0,67,0.00,CLR,,0.00,WeatherDisplay:10.37,2013-02-05 23:00:00,
2013-02-05 15:15:00,54.4,44.4,30.02,SSE,157,0.0,3.0,69,0.00,CLR,,0.00,WeatherDisplay:10.37,2013-02-05 23:15:00,
2013-02-05 15:30:00,53.6,44.0,30.03,SE,141,0.0,4.0,70,0.00,CLR,,0.00,WeatherDisplay:10.37,2013-02-05 23:30:00,
2013-02-05 15:45:00,53.1,44.3,30.03,SSE,151,0.0,2.0,72,0.00,CLR,,0.00,WeatherDisplay:10.37,2013-02-05 23:45:00,
2013-02-05 16:00:00,52.6,44.2,30.03,SE,146,0.0,2.0,73,0.00,CLR,,0.00,WeatherDisplay:10.37,2013-02-06 00:00:00,
2013-02-05 16:15:00,52.5,44.4,30.03,SE,129,0.0,1.0,74,0.00,CLR,,0.00,WeatherDisplay:10.37,2013-02-06 00:15:00,
2013-02-05 16:30:00,51.9,44.2,30.04,SE,127,0.0,1.0,75,0.00,CLR,,0.00,WeatherDisplay:10.37,2013-02-06 00:30:00,
2013-02-05 16:45:00,51.4,44.1,30.05,ESE,119,0.0,2.0,76,0.00,CLR,,0.00,WeatherDisplay:10.37,2013-02-06 00:45:00,
2013-02-05 17:00:00,51.1,44.2,30.04,SE,131,0.0,0.0,77,0.00,CLR,,0.00,WeatherDisplay:10.37,2013-02-06 01:00:00,
2013-02-05 17:14:00,50.8,44.2,30.04,SE,131,0.0,1.0,78,0.00,CLR,,0.00,WeatherDisplay:10.37,2013-02-06 01:14:00,
2013-02-05 17:30:00,50.5,44.2,30.05,SE,131,0.0,1.0,79,0.00,CLR,,0.00,WeatherDisplay:10.37,2013-02-06 01:30:00,
2013-02-05 17:45:00,50.2,44.2,30.04,SE,131,0.0,1.0,80,0.00,CLR,,0.00,WeatherDisplay:10.37,2013-02-06 01:45:00,
2013-02-05 18:00:00,49.9,44.0,30.05,SE,131,0.0,0.0,80,0.00,CLR,,0.00,WeatherDisplay:10.37,2013-02-06 02:00:00,
2013-02-05 18:15:00,49.5,43.9,30.05,SE,131,0.0,1.0,81,0.00,CLR,,0.00,WeatherDisplay:10.37,2013-02-06 02:15:00,
2013-02-05 18:30:00,49.4,44.1,30.05,SE,131,0.0,0.0,82,0.00,CLR,,0.00,WeatherDisplay:10.37,2013-02-06 02:30:00,
2013-02-05 18:45:00,48.8,43.5,30.05,SE,131,0.0,1.0,82,0.00,CLR,,0.00,WeatherDisplay:10.37,2013-02-06 02:45:00,
2013-02-05 19:00:00,48.0,43.1,30.05,SE,131,0.0,0.0,83,0.00,CLR,,0.00,WeatherDisplay:10.37,2013-02-06 03:00:00,
2013-02-05 19:15:00,47.3,43.0,30.05,SE,131,0.0,0.0,85,0.00,CLR,,0.00,WeatherDisplay:10.37,2013-02-06 03:15:00,
2013-02-05 19:30:00,46.8,42.8,30.06,SE,131,0.0,1.0,86,0.00,CLR,,0.00,WeatherDisplay:10.37,2013-02-06 03:30:00,
2013-02-05 19:45:00,47.7,43.7,30.06,South,189,0.0,2.0,86,0.00,CLR,,0.00,WeatherDisplay:10.37,2013-02-06 03:45:00,
2013-02-05 20:00:00,48.2,44.2,30.06,West,266,0.0,1.0,86,0.00,CLR,,0.00,WeatherDisplay:10.37,2013-02-06 04:00:00,
2013-02-05 20:15:00,47.9,43.3,30.06,West,266,0.0,1.0,84,0.00,CLR,,0.00,WeatherDisplay:10.37,2013-02-06 04:15:00,
2013-02-05 20:30:00,46.5,42.3,30.07,West,266,0.0,0.0,85,0.00,CLR,,0.00,WeatherDisplay:10.37,2013-02-06 04:30:00,
2013-02-05 20:44:00,45.8,42.2,30.07,West,266,0.0,1.0,87,0.00,CLR,,0.00,WeatherDisplay:10.37,2013-02-06 04:44:00,
2013-02-05 21:00:00,45.4,42.1,30.07,West,266,0.0,0.0,88,0.00,CLR,,0.00,WeatherDisplay:10.37,2013-02-06 05:00:00,
2013-02-05 21:14:00,45.2,42.2,30.07,West,266,0.0,0.0,89,0.00,CLR,,0.00,WeatherDisplay:10.37,2013-02-06 05:14:00,
2013-02-05 21:30:00,45.5,42.4,30.08,West,266,0.0,2.0,89,0.00,CLR,,0.00,WeatherDisplay:10.37,2013-02-06 05:30:00,
2013-02-05 21:44:00,45.2,41.5,30.08,West,266,0.0,1.0,87,0.00,CLR,,0.00,WeatherDisplay:10.37,2013-02-06 05:44:00,
2013-02-05 22:00:00,44.6,41.6,30.08,West,276,0.0,2.0,89,0.00,CLR,,0.00,WeatherDisplay:10.37,2013-02-06 06:00:00,
2013-02-05 22:14:00,44.9,41.3,30.08,West,276,0.0,1.0,87,0.00,CLR,,0.00,WeatherDisplay:10.37,2013-02-06 06:14:00,
2013-02-05 22:30:00,44.2,40.6,30.08,West,276,0.0,1.0,87,0.00,CLR,,0.00,WeatherDisplay:10.37,2013-02-06 06:30:00,
2013-02-05 22:44:00,43.8,40.2,30.08,West,276,0.0,0.0,87,0.00,CLR,,0.00,WeatherDisplay:10.37,2013-02-06 06:44:00,
2013-02-05 23:00:00,43.0,39.1,30.08,West,276,0.0,1.0,86,0.00,CLR,,0.00,WeatherDisplay:10.37,2013-02-06 07:00:00,
2013-02-05 23:14:00,42.2,38.9,30.09,West,276,0.0,1.0,88,0.00,CLR,,0.00,WeatherDisplay:10.37,2013-02-06 07:14:00,
2013-02-05 23:30:00,41.6,38.3,30.09,West,276,0.0,2.0,88,0.00,CLR,,0.00,WeatherDisplay:10.37,2013-02-06 07:30:00,
2013-02-05 23:45:00,40.8,37.5,30.08,West,276,0.0,1.0,88,0.00,CLR,,0.00,WeatherDisplay:10.37,2013-02-06 07:45:00,